Location: Moscow Pond
(43.6842°N, 73.2366°W)
Time: 20:52:08
(UTC+00:00)

NOSS 3-1 (C) - Pass Details

Date: 08 November 2025
Orbit: 619 x 1583 km, 63.4° (Epoch: 01 December)

Event Time Altitude Azimuth Distance (km) Brightness Sun altitude
Exits shadow 09:49:35 43° 275° (W) 1,007 3.1 -19.9°
Maximum altitude 09:50:38 50° 314° (NW) 930 3.1 -19.7°
Drops below altitude 10° 09:56:04 10° 30° (NNE) 2,496 5.9 -18.7°
Sets 09:58:56 0° 35° (NE) 3,591 6.9 -18.2°
